Location: Eschentzwiller
(47.7125°N, 7.3981°E)
Time: 04:39:45
(UTC+00:00)

NOSS 3-4 (A) - Pass Details

Date: 27 October 2020
Orbit: 882 x 1330 km, 63.4° (Epoch: 28 November)

Event Time Altitude Azimuth Distance (km) Brightness Sun altitude
Rises 19:22:14 0° 319° (NW) 3,801 7.4 -31.0°
Reaches altitude 10° 19:24:45 10° 319° (NW) 2,905 6.6 -31.4°
Enters shadow 19:31:39 86° 257° (WSW) 1,166 3.7 -32.5°
